Location: Asheville, NC
(35.6000°N, 82.5500°W)
Time: 18:46:49
(UTC-05:00)

Vanguard 3 - Pass Details

Date: 17 February 2018
Orbit: 508 x 3264 km, 33.3° (Epoch: 17 February)

Event Time Altitude Azimuth Distance (km) Brightness Sun altitude
Rises 20:59:15 0° 273° (W) 2,731 10.9 -34.1°
Reaches altitude 10° 21:01:15 10° 264° (W) 1,961 9.9 -34.5°
Enters shadow 21:02:48 22° 251° (WSW) 1,456 8.9 -34.8°
Maximum altitude 21:05:21 40° 194° (SSW) 1,129 - -35.3°
Drops below altitude 10° 21:11:37 10° 127° (SE) 3,006 - -36.6°
Sets 21:15:25 0° 121° (ESE) 4,426 - -37.3°
